Calgary, Alberta

10:00 PM MDT on August 20, 2017 (GMT -0600)
Calgary International

Weather History for CYYC - October, 2012

Change the Weather History Date:

Friday, October 5, 2012

  Actual Average Record
Temperature  
Mean Temperature 37 °F -  
Max Temperature 45 °F 52 °F 77 °F (2003)
Min Temperature 29 °F 28 °F 19 °F (2000)
Degree Days  
Heating Degree Days 28    
Moisture  
Dew Point 23 °F    
Average Humidity 56    
Maximum Humidity 80    
Minimum Humidity 27    
Precipitation  
Precipitation 0.00 in 0.02 in - ()
Sea Level Pressure  
Sea Level Pressure 30.50 in    
Wind  
Wind Speed 8 mph ()    
Max Wind Speed 13 mph    
Max Gust Speed 20 mph    
Visibility 15.4 miles    
Events      
Averages and records for this station are not official NWS values.
T = Trace of Precipitation, MM = Missing Value Source: Averaged Metar Reports

Daily Weather History Graph

Daily Weather History Graph

Search for Another Location

Airport or City:

Trip Planner

Search our weather history database for the weather conditions in past years. The results will help you decide how hot, cold, wet, or windy it might be!

Date:

Astronomy

Oct. 05, 2012 Rise Set
Actual Time 7:44 AM MDT 7:03 PM MDT
Civil Twilight 7:10 AM MDT 7:36 PM MDT
Nautical Twilight 6:32 AM MDT 8:14 PM MDT
Astronomical Twilight 5:53 AM MDT 8:53 PM MDT
Moon 9:58 PM MDT (10/5) 1:27 PM MDT (10/5)
Length of Visible Light 12h 25m
Length of Day
11h 19m
Waning Gibbous, 73% of the Moon is Illuminated
Oct 5
Waning Gibbous
Oct 8
Last Quarter
Oct 15
New
Oct 21
First Quarter
Oct 29
Full

Hourly Weather History & Observations

Time (MDT) Temp. Windchill Dew Point Humidity Pressure Visibility Wind Dir Wind Speed Gust Speed Precip Events Conditions
12:00 AM 35 °F - 25 °F 57% 30.49 in 15 mi WNW 10.4 mph - -   Mostly Cloudy
12:00 AM 35.6 °F 28.0 °F 24.8 °F 65% 30.49 in 15.0 mi WNW 10.4 mph - N/A   Mostly Cloudy
1:00 AM 35.6 °F 27.5 °F 24.8 °F 65% 30.49 in 15.0 mi WNW 11.5 mph - N/A   Mostly Cloudy
2:00 AM 33.8 °F 25.3 °F 24.8 °F 70% 30.49 in 15.0 mi West 11.5 mph - N/A   Mostly Cloudy
3:00 AM 32.0 °F 25.6 °F 24.8 °F 75% 30.50 in 15.0 mi WNW 6.9 mph - N/A   Mostly Cloudy
4:00 AM 30.2 °F 22.6 °F 24.8 °F 80% 30.50 in 15.0 mi West 8.1 mph - N/A   Mostly Cloudy
5:00 AM 32.0 °F 24.2 °F 24.8 °F 75% 30.49 in 15.0 mi WNW 9.2 mph - N/A   Mostly Cloudy
6:00 AM 30.2 °F 22.6 °F 24.8 °F 80% 30.51 in 15.0 mi WNW 8.1 mph - N/A   Mostly Cloudy
7:00 AM 30.2 °F 20.8 °F 24.8 °F 80% 30.53 in 15.0 mi WNW 11.5 mph - N/A   Mostly Cloudy
8:00 AM 30.2 °F 21.3 °F 24.8 °F 80% 30.55 in 40.0 mi WNW 10.4 mph - N/A   Mostly Cloudy
9:00 AM 32.0 °F 24.2 °F 24.8 °F 75% 30.56 in 40.0 mi WNW 9.2 mph - N/A   Mostly Cloudy
10:00 AM 35.6 °F 29.9 °F 24.8 °F 65% 30.56 in 40.0 mi WNW 6.9 mph - N/A   Scattered Clouds
11:00 AM 39.2 °F 37.0 °F 23.0 °F 52% 30.56 in 40.0 mi West 3.5 mph - N/A   Partly Cloudy
12:00 PM 41 °F - 23 °F 36% 30.56 in 37 mi WNW 5.8 mph - -  
12:00 PM 41.0 °F 38.0 °F 23.0 °F 49% 30.56 in 40.0 mi West 4.6 mph - N/A   Partly Cloudy
1:00 PM 42.8 °F 41.1 °F 21.2 °F 42% 30.55 in 40.0 mi Variable 3.5 mph - N/A   Scattered Clouds
2:00 PM 44.6 °F 40.2 °F 23.0 °F 43% 30.53 in 40.0 mi NW 8.1 mph - N/A   Mostly Cloudy
3:00 PM 42.8 °F 40.1 °F 19.4 °F 39% 30.52 in 40.0 mi SW 4.6 mph - N/A   Mostly Cloudy
4:00 PM 44.6 °F 42.2 °F 19.4 °F 37% 30.51 in 40.0 mi WSW 4.6 mph - N/A   Partly Cloudy
5:00 PM 44.6 °F - 21.2 °F 39% 30.49 in 30.0 mi Variable 2.3 mph - N/A   Partly Cloudy
6:00 PM 44 °F - 21 °F 27% 30.48 in 28 mi South 9.2 mph - -   Scattered Clouds
6:00 PM 44.6 °F 40.2 °F 21.2 °F 39% 30.48 in 30.0 mi SSW 8.1 mph - N/A   Scattered Clouds
7:00 PM 41.0 °F 35.2 °F 19.4 °F 42% 30.47 in 30.0 mi South 9.2 mph - N/A   Scattered Clouds
8:00 PM 39.2 °F 33.0 °F 21.2 °F 49% 30.46 in 20.0 mi South 9.2 mph - N/A   Scattered Clouds
9:00 PM 39.2 °F 32.0 °F 21.2 °F 49% 30.44 in 15.0 mi SSW 11.5 mph - N/A   Mostly Cloudy
10:00 PM 37.4 °F 29.3 °F 21.2 °F 52% 30.42 in 15.0 mi SSW 12.7 mph 19.6 mph N/A   Mostly Cloudy
11:00 PM 37.4 °F 29.8 °F 21.2 °F 52% 30.40 in 15.0 mi SSW 11.5 mph - N/A   Overcast